Location: Ar Ranvel
(48.3000°N, 4.8833°W)
Time: 08:09:27
(UTC+00:00)

SPOT 1/Viking Rocket - Pass Details

Date: 16 June 2021
Orbit: 778 x 793 km, 98.4° (Epoch: 03 August)

Event Time Altitude Azimuth Distance (km) Brightness Sun altitude
Exits shadow 21:05:02 - 159° (SSE) 2,777 5.8 -6.1°
Reaches altitude 10° 21:06:10 10° 158° (SSE) 2,325 5.4 -6.2°
Maximum altitude 21:11:17 78° 73° (ENE) 801 3.6 -6.8°
Drops below altitude 10° 21:16:27 10° 348° (NNW) 2,342 7.1 -7.4°
Sets 21:18:46 0° 347° (NNW) 3,275 8.0 -7.6°
